Tiempo cada hora Gokak

Hoy, 1 Diciembre, Martes

Tiempo Temperatura Precipitaciones Viento Presión Humedad
00:00 +24°C° 0 mm 3 mps 706 mmHg 66%
01:00 +22°C° 0 mm 3 mps 705 mmHg 69%
02:00 +21°C° 0 mm 2 mps 704 mmHg 73%
03:00 +21°C° 0 mm 2 mps 704 mmHg 75%
04:00 +21°C° 0 mm 2 mps 704 mmHg 76%
05:00 +22°C° 0 mm 1 mps 704 mmHg 78%
06:00 +21°C° 0 mm 2 mps 705 mmHg 76%
07:00 +22°C° 0 mm 3 mps 706 mmHg 74%
08:00 +23°C° 0 mm 4 mps 707 mmHg 71%
09:00 +26°C° 0 mm 5 mps 707 mmHg 65%
10:00 +27°C° 0 mm 5 mps 707 mmHg 59%
11:00 +29°C° 0 mm 5 mps 707 mmHg 51%
12:00 +30°C° 0 mm 6 mps 706 mmHg 46%
13:00 +32°C° 0 mm 6 mps 706 mmHg 41%
14:00 +33°C° 0 mm 6 mps 705 mmHg 36%
15:00 +32°C° 0 mm 5 mps 705 mmHg 39%
16:00 +30°C° 0 mm 5 mps 705 mmHg 42%
17:00 +29°C° 0 mm 4 mps 704 mmHg 45%
18:00 +27°C° 0 mm 4 mps 705 mmHg 47%
19:00 +26°C° 0 mm 3 mps 705 mmHg 50%
20:00 +25°C° 0 mm 3 mps 706 mmHg 53%
21:00 +24°C° 0 mm 3 mps 706 mmHg 57%
22:00 +22°C° 0 mm 3 mps 705 mmHg 61%
23:00 +21°C° 0 mm 3 mps 705 mmHg 65%

Mañana, 2 Diciembre, Miércoles

Tiempo Temperatura Precipitaciones Viento Presión Humedad
00:00 +21°C° 0 mm 2 mps 705 mmHg 68%
01:00 +20°C° 0 mm 2 mps 704 mmHg 71%
02:00 +20°C° 0 mm 2 mps 704 mmHg 75%
03:00 +19°C° 0 mm 2 mps 704 mmHg 77%
04:00 +19°C° 0 mm 2 mps 704 mmHg 80%
05:00 +20°C° 0 mm 1 mps 704 mmHg 83%
06:00 +20°C° 0 mm 2 mps 705 mmHg 79%
07:00 +21°C° 0 mm 2 mps 706 mmHg 76%
08:00 +22°C° 0 mm 3 mps 706 mmHg 73%
09:00 +25°C° 0 mm 4 mps 706 mmHg 63%
10:00 +26°C° 0 mm 5 mps 706 mmHg 52%
11:00 +28°C° 0 mm 6 mps 706 mmHg 42%
12:00 +29°C° 0 mm 6 mps 705 mmHg 37%
13:00 +30°C° 0 mm 6 mps 705 mmHg 33%
14:00 +32°C° 0 mm 6 mps 704 mmHg 28%
15:00 +30°C° 0 mm 5 mps 704 mmHg 31%
16:00 +29°C° 0 mm 4 mps 703 mmHg 33%
17:00 +28°C° 0 mm 3 mps 703 mmHg 36%
18:00 +26°C° 0 mm 3 mps 703 mmHg 38%
19:00 +25°C° 0 mm 3 mps 704 mmHg 40%
20:00 +23°C° 0 mm 2 mps 704 mmHg 42%
21:00 +23°C° 0 mm 2 mps 704 mmHg 45%
22:00 +21°C° 0 mm 2 mps 704 mmHg 48%
23:00 +20°C° 0 mm 2 mps 704 mmHg 51%

Pasado mañana, 3 Diciembre, Jueves

Tiempo Temperatura Precipitaciones Viento Presión Humedad
00:00 +20°C° 0 mm 2 mps 704 mmHg 54%
01:00 +19°C° 0 mm 2 mps 703 mmHg 58%
02:00 +19°C° 0 mm 2 mps 703 mmHg 61%
03:00 +18°C° 0 mm 2 mps 703 mmHg 66%
04:00 +18°C° 0 mm 2 mps 703 mmHg 70%
05:00 +18°C° 0 mm 2 mps 703 mmHg 74%
06:00 +19°C° 0 mm 2 mps 704 mmHg 72%
07:00 +20°C° 0 mm 3 mps 705 mmHg 70%
08:00 +21°C° 0 mm 3 mps 705 mmHg 68%
09:00 +23°C° 0 mm 4 mps 705 mmHg 57%
10:00 +26°C° 0 mm 5 mps 706 mmHg 46%
11:00 +28°C° 0 mm 5 mps 706 mmHg 36%
12:00 +29°C° 0 mm 5 mps 705 mmHg 33%
13:00 +30°C° 0 mm 5 mps 704 mmHg 31%
14:00 +32°C° 0 mm 4 mps 703 mmHg 28%
15:00 +30°C° 0 mm 4 mps 703 mmHg 32%
16:00 +28°C° 0 mm 3 mps 703 mmHg 35%
17:00 +27°C° 0 mm 3 mps 703 mmHg 39%
18:00 +26°C° 0 mm 3 mps 703 mmHg 41%
19:00 +25°C° 0 mm 3 mps 704 mmHg 44%
20:00 +22°C° 0 mm 3 mps 704 mmHg 47%
21:00 +22°C° 0 mm 3 mps 704 mmHg 52%
22:00 +23°C° 0 mm 2 mps 704 mmHg 58%
23:00 +21°C° 0 mm 2 mps 703 mmHg 64%

4 Diciembre, Viernes

Tiempo Temperatura Precipitaciones Viento Presión Humedad
00:00 +21°C° 0 mm 2 mps 703 mmHg 68%
01:00 +20°C° 0 mm 2 mps 703 mmHg 72%
02:00 +20°C° 0 mm 2 mps 702 mmHg 76%
03:00 +20°C° 0 mm 3 mps 702 mmHg 79%
04:00 +19°C° 0 mm 3 mps 702 mmHg 82%
05:00 +19°C° 0 mm 3 mps 702 mmHg 85%
06:00 +20°C° 0 mm 3 mps 703 mmHg 81%
07:00 +21°C° 0 mm 4 mps 704 mmHg 76%
08:00 +22°C° 0 mm 4 mps 704 mmHg 72%
09:00 +25°C° 0 mm 5 mps 704 mmHg 66%
10:00 +27°C° 0 mm 5 mps 705 mmHg 60%
11:00 +29°C° 0 mm 6 mps 705 mmHg 53%
12:00 +29°C° 0 mm 5 mps 704 mmHg 50%
13:00 +30°C° 0 mm 5 mps 703 mmHg 46%
14:00 +32°C° 0 mm 5 mps 702 mmHg 42%
15:00 +30°C° 0 mm 4 mps 702 mmHg 45%
16:00 +29°C° 0 mm 4 mps 702 mmHg 48%
17:00 +28°C° 0 mm 3 mps 702 mmHg 50%
18:00 +27°C° 0 mm 3 mps 702 mmHg 54%
19:00 +26°C° 0 mm 3 mps 703 mmHg 57%
20:00 +25°C° 0 mm 3 mps 703 mmHg 61%
21:00 +25°C° 0 mm 3 mps 703 mmHg 64%
22:00 +24°C° 0 mm 3 mps 703 mmHg 67%
23:00 +24°C° 0 mm 3 mps 704 mmHg 70%

5 Diciembre, Sábado

Tiempo Temperatura Precipitaciones Viento Presión Humedad
00:00 +22°C° 0 mm 3 mps 703 mmHg 75%
01:00 +21°C° 0 mm 3 mps 703 mmHg 79%
02:00 +21°C° 0 mm 3 mps 702 mmHg 83%
03:00 +20°C° 0 mm 3 mps 702 mmHg 86%
04:00 +20°C° 0 mm 3 mps 702 mmHg 90%
05:00 +20°C° 0 mm 3 mps 702 mmHg 93%
06:00 +21°C° 0 mm 4 mps 703 mmHg 87%
07:00 +22°C° 0 mm 5 mps 704 mmHg 82%
08:00 +23°C° 0 mm 6 mps 704 mmHg 77%
09:00 +26°C° 0 mm 6 mps 705 mmHg 68%
10:00 +28°C° 0 mm 6 mps 705 mmHg 59%
11:00 +29°C° 0 mm 7 mps 705 mmHg 51%
12:00 +30°C° 0 mm 6 mps 704 mmHg 48%
13:00 +32°C° 0 mm 6 mps 703 mmHg 46%
14:00 +33°C° 0 mm 6 mps 703 mmHg 44%
15:00 +32°C° 0 mm 6 mps 702 mmHg 48%
16:00 +30°C° 0 mm 5 mps 702 mmHg 53%
17:00 +29°C° 0 mm 5 mps 702 mmHg 57%
18:00 +27°C° 0 mm 4 mps 702 mmHg 61%
19:00 +26°C° 0 mm 4 mps 703 mmHg 66%
20:00 +25°C° 0 mm 3 mps 703 mmHg 70%
21:00 +25°C° 0 mm 3 mps 703 mmHg 71%
22:00 +24°C° 0 mm 3 mps 704 mmHg 73%
23:00 +24°C° 0 mm 3 mps 704 mmHg 75%

6 Diciembre, Domingo

Tiempo Temperatura Precipitaciones Viento Presión Humedad
00:00 +23°C° 0 mm 4 mps 703 mmHg 78%
01:00 +22°C° 0 mm 4 mps 703 mmHg 80%
02:00 +22°C° 0 mm 4 mps 703 mmHg 83%
03:00 +21°C° 0 mm 4 mps 703 mmHg 86%
04:00 +21°C° 0 mm 4 mps 703 mmHg 89%
05:00 +21°C° 0 mm 4 mps 703 mmHg 92%
06:00 +21°C° 0 mm 5 mps 704 mmHg 87%
07:00 +22°C° 0 mm 6 mps 705 mmHg 83%
08:00 +23°C° 0 mm 7 mps 705 mmHg 78%
09:00 +24°C° 0 mm 7 mps 705 mmHg 71%
10:00 +27°C° 0 mm 7 mps 705 mmHg 64%
11:00 +29°C° 0 mm 7 mps 705 mmHg 57%
12:00 +29°C° 0 mm 7 mps 705 mmHg 53%
13:00 +30°C° 0 mm 7 mps 704 mmHg 50%
14:00 +32°C° 0 mm 7 mps 704 mmHg 46%
15:00 +30°C° 0 mm 6 mps 704 mmHg 49%
16:00 +29°C° 0 mm 5 mps 704 mmHg 51%
17:00 +28°C° 0 mm 5 mps 704 mmHg 53%
18:00 +27°C° 0 mm 4 mps 704 mmHg 56%
19:00 +26°C° 0 mm 4 mps 704 mmHg 60%
20:00 +25°C° 0 mm 4 mps 705 mmHg 63%
21:00 +23°C° 0 mm 4 mps 705 mmHg 67%
22:00 +23°C° 0 mm 4 mps 705 mmHg 70%
23:00 +22°C° 0 mm 3 mps 705 mmHg 74%
Mostrar más

Necesitamos Su Consentimiento

Meteoprog y nuestros Proveedores de Servicios pueden almacenar y acceder a sus datos personales como cookies, identificadores de dispositivo u otras tecnologías similares de su dispositivo y procesar dichos datos para personalizar contenido y anuncios, además de ofrecer funciones de redes sociales y analizar el tráfico.

  • Almacenar y/o acceder a información en su dispositivo

    Se puede almacenar o acceder a cookies, identificadores de dispositivo u otra información de su dispositivo para los fines anteriormente indicados.

  • Anuncios y contenido personalizados, medición de anuncios y contenido, percepciones del público, y desarrollo de productos

    Los anuncios y el contenido pueden personalizarse en base a su perfil. Se pueden añadir más datos para personalizar mejor los anuncios y contenidos. Se puede medir el rendimiento de los anuncios y contenidos. Se puede obtener la percepción sobre el público que ha visto los anuncios y contenidos. Dichos datos pueden usarse para desarrollar o mejorar la experiencia del usuario, sistemas y software.

Al hacer clic en ‘Estoy De Acuerdo’ usted permitirá el uso de las cookies, identificadores de dispositivo, balizas web u otras tecnologías similares indicadas. Su configuración puede cambiarse desde el navegador de su dispositivo.

Para ciertos fines, los intereses legítimos pueden ser considerados por encima del consentimiento. Puede leer más sobre ello en nuestra Política de Privacidad y Cookies.